RYR719 LFOB-EGBB

Flight info

Callsign RYR719
Flight time 0h 47m
Altitude 30000
Route OPALE DCT KESAX DCT DIMAL DCT ALESO T420 HEMEL
Aircraft B738/M-SADFGHIJ7LP2RWXY/SB1D1G1

Departure

Time 2026-04-23 10:19
Airport Beauvais-Tillé airport (LFOB)

Arrival

Time 2026-04-23 11:06
Airport Birmingham Airport (EGBB)
Time Latitude Longitude Altitude Speed Heading
2026-04-23 09:48 49.45783 2.11223 350 ft 0 kts 33°
2026-04-23 10:13 49.45769 2.11208 355 ft 4 kts 34°
2026-04-23 10:13 49.45750 2.11188 351 ft 4 kts 30°
2026-04-23 10:13 49.45730 2.11181 354 ft 4 kts 323°
2026-04-23 10:13 49.45713 2.11212 356 ft 4 kts 303°
2026-04-23 10:14 49.45709 2.11221 356 ft 0 kts 304°
2026-04-23 10:16 49.45710 2.11218 356 ft 1 kts 304°
2026-04-23 10:16 49.45712 2.11213 345 ft 1 kts 303°
2026-04-23 10:16 49.45715 2.11206 356 ft 1 kts 303°
2026-04-23 10:17 49.45727 2.11179 348 ft 5 kts 304°
2026-04-23 10:17 49.45754 2.11118 347 ft 8 kts 304°
2026-04-23 10:17 49.45784 2.11050 348 ft 8 kts 301°
2026-04-23 10:17 49.45773 2.10980 356 ft 7 kts 218°
2026-04-23 10:18 49.45730 2.10941 350 ft 7 kts 208°
2026-04-23 10:18 49.45685 2.10904 356 ft 8 kts 208°
2026-04-23 10:18 49.45645 2.10853 350 ft 7 kts 211°
2026-04-23 10:18 49.45608 2.10903 349 ft 9 kts 124°
2026-04-23 10:19 49.45527 2.11087 347 ft 50 kts 124°
2026-04-23 10:19 49.45195 2.11852 336 ft 118 kts 123°
2026-04-23 10:19 49.44636 2.13103 542 ft 152 kts 123°
2026-04-23 10:19 49.43981 2.14479 1151 ft 166 kts 116°
2026-04-23 10:20 49.43800 2.16175 1942 ft 166 kts 77°
2026-04-23 10:20 49.44501 2.17690 2575 ft 186 kts 42°
2026-04-23 10:20 49.45694 2.18565 3299 ft 195 kts 30°
2026-04-23 10:20 49.47080 2.19118 3627 ft 228 kts
2026-04-23 10:21 49.48720 2.18472 3939 ft 269 kts 335°
2026-04-23 10:21 49.50144 2.16425 4628 ft 286 kts 305°
2026-04-23 10:21 49.51234 2.13926 5586 ft 285 kts 311°
2026-04-23 10:21 49.52497 2.11559 6463 ft 289 kts 312°
2026-04-23 10:22 49.53776 2.09147 7315 ft 291 kts 312°
2026-04-23 10:22 49.55287 2.07153 8162 ft 285 kts 337°
2026-04-23 10:22 49.57119 2.06023 9039 ft 284 kts 344°
2026-04-23 10:22 49.59001 2.05026 9843 ft 288 kts 345°
2026-04-23 10:23 49.60911 2.04041 10629 ft 291 kts 345°
2026-04-23 10:23 49.62900 2.03014 10921 ft 314 kts 345°
2026-04-23 10:23 49.65041 2.01901 11145 ft 336 kts 345°
2026-04-23 10:23 49.67299 2.00713 11745 ft 348 kts 344°
2026-04-23 10:24 49.69573 1.99321 12510 ft 356 kts 336°
2026-04-23 10:24 49.71773 1.97510 13382 ft 360 kts 333°
2026-04-23 10:24 49.73962 1.95594 14260 ft 363 kts 333°
2026-04-23 10:24 49.76162 1.93647 15024 ft 366 kts 333°
2026-04-23 10:25 49.78393 1.91683 15719 ft 372 kts 333°
2026-04-23 10:25 49.80661 1.89701 16417 ft 377 kts 333°
2026-04-23 10:25 49.82962 1.87704 17117 ft 381 kts 333°
2026-04-23 10:25 49.85292 1.85690 17839 ft 386 kts 333°
2026-04-23 10:26 49.87653 1.83655 18528 ft 390 kts 333°
2026-04-23 10:26 49.90043 1.81596 19150 ft 395 kts 333°
2026-04-23 10:26 49.92442 1.79528 19913 ft 394 kts 334°
2026-04-23 10:26 49.94834 1.77465 20608 ft 395 kts 333°
2026-04-23 10:27 49.97252 1.75380 21165 ft 400 kts 333°
2026-04-23 10:27 49.99703 1.73264 21709 ft 405 kts 333°
2026-04-23 10:27 50.02178 1.71124 22304 ft 409 kts 333°
2026-04-23 10:27 50.04672 1.68965 22891 ft 412 kts 333°
2026-04-23 10:28 50.07190 1.66783 23442 ft 416 kts 333°
2026-04-23 10:28 50.09729 1.64578 23983 ft 420 kts 333°
2026-04-23 10:28 50.12291 1.62352 24431 ft 423 kts 332°
2026-04-23 10:28 50.14870 1.60108 24901 ft 426 kts 333°
2026-04-23 10:29 50.17466 1.57847 25354 ft 429 kts 333°
2026-04-23 10:29 50.20082 1.55565 25771 ft 432 kts 333°
2026-04-23 10:29 50.22717 1.53263 26191 ft 435 kts 332°
2026-04-23 10:29 50.25369 1.50942 26621 ft 438 kts 332°
2026-04-23 10:30 50.28039 1.48604 27039 ft 441 kts 332°
2026-04-23 10:30 50.30715 1.46257 27513 ft 442 kts 332°
2026-04-23 10:30 50.33395 1.43904 28082 ft 441 kts 332°
2026-04-23 10:30 50.36064 1.41557 28702 ft 439 kts 332°
2026-04-23 10:31 50.38722 1.39216 29270 ft 438 kts 332°
2026-04-23 10:31 50.41357 1.36892 30090 ft 427 kts 333°
2026-04-23 10:31 50.43944 1.34607 30352 ft 424 kts 333°
2026-04-23 10:31 50.46490 1.32358 30378 ft 418 kts 333°
2026-04-23 10:32 50.51562 1.27871 30421 ft 426 kts 332°
2026-04-23 10:32 50.56732 1.23217 30413 ft 430 kts 328°
2026-04-23 10:33 50.61243 1.17011 30427 ft 433 kts 316°
2026-04-23 10:33 50.65445 1.10210 30402 ft 433 kts 316°
2026-04-23 10:34 50.69675 1.03414 30440 ft 435 kts 316°
2026-04-23 10:34 50.73953 0.96604 30450 ft 438 kts 316°
2026-04-23 10:35 50.78223 0.89803 30425 ft 425 kts 317°
2026-04-23 10:35 50.80262 0.86546 30415 ft 410 kts 317°
2026-04-23 10:35 50.82264 0.83350 30435 ft 410 kts 317°
2026-04-23 10:36 50.86310 0.76880 30434 ft 418 kts 317°
2026-04-23 10:36 50.90398 0.70314 30451 ft 420 kts 317°
2026-04-23 10:37 50.94505 0.63702 30477 ft 422 kts 317°
2026-04-23 10:37 50.98620 0.57059 30494 ft 422 kts 317°
2026-04-23 10:38 51.02728 0.50409 30513 ft 421 kts 316°
2026-04-23 10:38 51.06795 0.43808 30519 ft 408 kts 317°
2026-04-23 10:39 51.10780 0.37634 30537 ft 399 kts 319°
2026-04-23 10:39 51.14828 0.31531 30549 ft 403 kts 319°
2026-04-23 10:40 51.18898 0.25337 30535 ft 406 kts 319°
2026-04-23 10:40 51.22975 0.19081 30511 ft 408 kts 319°
2026-04-23 10:41 51.27053 0.12802 30503 ft 406 kts 319°
2026-04-23 10:41 51.31112 0.06540 30479 ft 405 kts 319°
2026-04-23 10:42 51.35457 0.01073 30311 ft 397 kts 331°
2026-04-23 10:42 51.37823 -0.01152 29982 ft 390 kts 332°
2026-04-23 10:42 51.40145 -0.03304 29689 ft 381 kts 332°
2026-04-23 10:43 51.42416 -0.05414 29408 ft 375 kts 332°
2026-04-23 10:43 51.44660 -0.07515 29133 ft 374 kts 332°
2026-04-23 10:43 51.46894 -0.09622 28760 ft 370 kts 332°
2026-04-23 10:43 51.49098 -0.11713 28372 ft 366 kts 332°
2026-04-23 10:44 51.51274 -0.13785 27958 ft 362 kts 332°
2026-04-23 10:44 51.53431 -0.15844 27562 ft 359 kts 332°
2026-04-23 10:44 51.55568 -0.17886 27157 ft 356 kts 332°
2026-04-23 10:44 51.57690 -0.19915 26844 ft 354 kts 332°
2026-04-23 10:45 51.59794 -0.21930 26451 ft 352 kts 332°
2026-04-23 10:45 51.61889 -0.23937 26069 ft 350 kts 332°
2026-04-23 10:45 51.63894 -0.25861 25700 ft 348 kts 332°
2026-04-23 10:45 51.65967 -0.27853 25325 ft 346 kts 332°
2026-04-23 10:46 51.68029 -0.29836 24945 ft 345 kts 332°
2026-04-23 10:46 51.70036 -0.31769 24579 ft 344 kts 332°
2026-04-23 10:46 51.72088 -0.33748 24201 ft 343 kts 332°
2026-04-23 10:46 51.74081 -0.35673 23777 ft 343 kts 332°
2026-04-23 10:47 51.76120 -0.37642 23351 ft 341 kts 332°
2026-04-23 10:47 51.78153 -0.39609 22869 ft 340 kts 332°
2026-04-23 10:47 51.80179 -0.41570 22467 ft 339 kts 332°
2026-04-23 10:47 51.82193 -0.43522 22149 ft 337 kts 331°
2026-04-23 10:48 51.84214 -0.45483 21820 ft 344 kts 331°
2026-04-23 10:48 51.86300 -0.47506 21482 ft 354 kts 331°
2026-04-23 10:48 51.88431 -0.49577 21115 ft 359 kts 331°
2026-04-23 10:48 51.90573 -0.51663 20747 ft 359 kts 331°
2026-04-23 10:49 51.92702 -0.53739 20388 ft 357 kts 331°
2026-04-23 10:49 51.94824 -0.55811 20032 ft 355 kts 331°
2026-04-23 10:49 51.96943 -0.57880 19675 ft 354 kts 331°
2026-04-23 10:49 51.99046 -0.59936 19322 ft 353 kts 332°
2026-04-23 10:50 52.01148 -0.61993 18975 ft 352 kts 331°
2026-04-23 10:50 52.03247 -0.64048 18607 ft 352 kts 331°
2026-04-23 10:50 52.05337 -0.66098 18205 ft 351 kts 331°
2026-04-23 10:50 52.07423 -0.68148 17838 ft 349 kts 331°
2026-04-23 10:51 52.09495 -0.70184 17491 ft 348 kts 331°
2026-04-23 10:51 52.11562 -0.72219 17142 ft 347 kts 331°
2026-04-23 10:51 52.13621 -0.74249 16795 ft 346 kts 331°
2026-04-23 10:51 52.15675 -0.76275 16454 ft 345 kts 330°
2026-04-23 10:52 52.17724 -0.78297 16112 ft 345 kts 330°
2026-04-23 10:52 52.19773 -0.80323 15768 ft 344 kts 331°
2026-04-23 10:52 52.21822 -0.82349 15425 ft 345 kts 331°
2026-04-23 10:52 52.23750 -0.84671 15060 ft 347 kts 315°
2026-04-23 10:53 52.25074 -0.87939 14739 ft 345 kts 293°
2026-04-23 10:53 52.25737 -0.91687 14413 ft 343 kts 283°
2026-04-23 10:53 52.26238 -0.95474 14053 ft 341 kts 282°
2026-04-23 10:53 52.26725 -0.99154 13699 ft 340 kts 285°
2026-04-23 10:54 52.27730 -1.02643 13213 ft 342 kts 305°
2026-04-23 10:54 52.29195 -1.05684 12859 ft 340 kts 309°
2026-04-23 10:54 52.30734 -1.08609 12479 ft 338 kts 310°
2026-04-23 10:54 52.32276 -1.11497 12131 ft 336 kts 310°
2026-04-23 10:55 52.33810 -1.14363 11787 ft 334 kts 310°
2026-04-23 10:55 52.35327 -1.17204 11447 ft 331 kts 310°
2026-04-23 10:55 52.36833 -1.20037 11101 ft 329 kts 310°
2026-04-23 10:55 52.38335 -1.22852 10780 ft 327 kts 310°
2026-04-23 10:56 52.39810 -1.25614 10463 ft 325 kts 310°
2026-04-23 10:56 52.41263 -1.28348 10460 ft 311 kts 310°
2026-04-23 10:56 52.42665 -1.30984 10196 ft 305 kts 310°
2026-04-23 10:56 52.44053 -1.33593 9920 ft 301 kts 310°
2026-04-23 10:57 52.45335 -1.36266 9656 ft 298 kts 306°
2026-04-23 10:57 52.46591 -1.39031 9172 ft 304 kts 306°
2026-04-23 10:57 52.47843 -1.41818 8848 ft 303 kts 306°
2026-04-23 10:57 52.49076 -1.44574 8696 ft 296 kts 306°
2026-04-23 10:58 52.50291 -1.47302 8399 ft 295 kts 305°
2026-04-23 10:58 52.51500 -1.50017 8028 ft 297 kts 305°
2026-04-23 10:58 52.52727 -1.52748 7726 ft 296 kts 306°
2026-04-23 10:58 52.53941 -1.55453 7530 ft 292 kts 306°
2026-04-23 10:59 52.55142 -1.58142 7355 ft 291 kts 305°
2026-04-23 10:59 52.55935 -1.59919 7121 ft 292 kts 305°
2026-04-23 10:59 52.57135 -1.62608 6877 ft 289 kts 305°
2026-04-23 10:59 52.58317 -1.65261 6423 ft 287 kts 305°
2026-04-23 11:00 52.59501 -1.67912 5940 ft 287 kts 305°
2026-04-23 11:00 52.60661 -1.70516 5782 ft 275 kts 305°
2026-04-23 11:00 52.62123 -1.73805 5620 ft 258 kts 305°
2026-04-23 11:00 52.62815 -1.75360 5527 ft 251 kts 306°
2026-04-23 11:01 52.63686 -1.77732 5410 ft 236 kts 284°
2026-04-23 11:01 52.63770 -1.80337 5032 ft 227 kts 251°
2026-04-23 11:01 52.63146 -1.82594 4913 ft 209 kts 236°
2026-04-23 11:01 52.62438 -1.84646 4644 ft 205 kts 233°
2026-04-23 11:02 52.61540 -1.86404 4296 ft 197 kts 212°
2026-04-23 11:02 52.60370 -1.87454 3908 ft 192 kts 193°
2026-04-23 11:02 52.59099 -1.87890 3612 ft 184 kts 179°
2026-04-23 11:02 52.57837 -1.87800 3261 ft 180 kts 166°
2026-04-23 11:03 52.56628 -1.87231 2953 ft 179 kts 154°
2026-04-23 11:03 52.55557 -1.86268 2702 ft 174 kts 142°
2026-04-23 11:03 52.54615 -1.85087 2431 ft 171 kts 140°
2026-04-23 11:03 52.53627 -1.83992 2101 ft 164 kts 144°
2026-04-23 11:04 52.52711 -1.83070 1868 ft 150 kts 145°
2026-04-23 11:04 52.51901 -1.82215 1726 ft 133 kts 140°
2026-04-23 11:04 52.51152 -1.81300 1473 ft 137 kts 139°
2026-04-23 11:04 52.50370 -1.80403 1296 ft 136 kts 141°
2026-04-23 11:05 52.49590 -1.79520 1126 ft 137 kts 137°
2026-04-23 11:05 52.48807 -1.78625 968 ft 139 kts 143°
2026-04-23 11:05 52.47995 -1.77720 760 ft 143 kts 141°
2026-04-23 11:05 52.47181 -1.76800 561 ft 141 kts 140°
2026-04-23 11:06 52.45641 -1.75088 322 ft 107 kts 146°
2026-04-23 11:06 52.45190 -1.74582 328 ft 57 kts 145°
2026-04-23 11:06 52.44973 -1.74340 325 ft 17 kts 141°
2026-04-23 11:07 52.44960 -1.74168 326 ft 16 kts 77°
2026-04-23 11:07 52.44990 -1.73982 323 ft 18 kts 73°
2026-04-23 11:07 52.45048 -1.73807 322 ft 17 kts 56°
2026-04-23 11:07 52.45134 -1.73812 322 ft 14 kts 325°
2026-04-23 11:08 52.45219 -1.73907 322 ft 15 kts 326°
2026-04-23 11:08 52.45302 -1.73972 322 ft 11 kts 13°
2026-04-23 11:08 52.45352 -1.73884 322 ft 10 kts 55°
2026-04-23 11:08 52.45389 -1.73791 322 ft 9 kts 59°
2026-04-23 11:09 52.45364 -1.73719 322 ft 8 kts 146°
2026-04-23 11:09 52.45346 -1.73698 322 ft 0 kts 146°